DELTA 1 DEB

Satellite information

Favourite Embed

Satellite Type and Status

DEBRISIN ORBIT

Key statistics

Satellite DELTA 1 DEB at a glance.

Uptime

18230

Days in orbit

Revolutions

≈ 14.7

Per day

Orbit

SSO

Sun Synchronous Orbit

Inclination

99.9

Latest

Satellite identification and parameters

Extended collection of information and parameters for DELTA 1 DEB.

Object identification

Identified? True

Debris? True

Object name: DELTA 1 DEB

International designator: 1975-052KA

Object number (NORAD): 26036

Object ID (CCSDS): 26036

Country: UNITED STATES OF AMERICA (US)

Current information (Y/N): Y

RCS size: SMALL

Orbital parameters

Period: 98.046 minutes

Inclination: 99.9448 deg

SMA: 7043.364 km

Apoapsis: 718.452 km

Periapsis: 612.006 km

RAAN: 261.4728 deg

Eccentricy: 0.0075565

Argument of periapsis: 200.0711 deg

Mean anomaly: 159.7513 deg

Mean motion: 14.68698213 rev/day

Mean motion (dot): 0.00020842 rev/day2

B* drag term: 0.0034292 1/REarth

Two-line elements (TLE)

Creation date: May 10, 2025, 2:32 a.m.

Reference frame: TEME

Reference center: EARTH

Epoch: May 9, 2025, 8:36 p.m. UTC

TLE line 0: 0 DELTA 1 DEB

TLE line 1: 1 26036U 75052KA 25129.85866634 .00020842 00000-0 34292-2 0 9999

TLE line 2: 2 26036 99.9448 261.4728 0075565 200.0711 159.7513 14.68698213374947

Live tracking on map

Real-time ground track for satellite DELTA 1 DEB.

In-orbit conjunctions

A list of the most updated potential collisions computed for object DELTA 1 DEB.

Target Orbit TCA Probability of collision Miss distance Type
CZ-6A DEB LEO 2025-01-19 00:07:14 0.000116561 938.0 (m) DEBRIS
COSMOS 2251 DEB LEO 2024-11-13 08:46:22 0.0004991871 271.0 (m) DEBRIS
COSMOS 968 LEO 2024-06-20 12:08:00 0.0007312791 435.0 (m) PAYLOAD

Associated space launch

Experimental meteorological satellite

DELTA 1 DEB was lifted into orbit during the mission ‘Delta 2910 | Nimbus 6’, on board a Delta 2910 space rocket.

The launch took place on June 12, 1975, 8:12 a.m. from Space Launch Complex 2W.

For more information about the launch, click the button.

Launch to space Delta 2910 | Nimbus 6
Delta 2910 | Nimbus 6

Agency: N/A

Status: Launch Successful

Launch date: June 12, 1975, 8:12 a.m. UTC

Rocket: Delta 2910

Launch pad: Space Launch Complex 2W

Location: Vandenberg SFB, CA, USA

...

Latest news about this satellite

There are no fresh news available about this satellite. Check back as we update our databases every day.


Newsletter sign-up

Weekly statistics, charts and insights to help you stay on top of the space industry.